Weather History for KHSE - July, 2013

Change the Weather History Date:

Monday, July 22, 2013

  Actual Average Record
Temperature  
Mean Temperature 82 °F 79 °F  
Max Temperature 87 °F 85 °F 94 °F (1952)
Min Temperature 77 °F 74 °F 62 °F (1968)
Degree Days  
Heating Degree Days 0 0  
Month to date heating degree days 0 0  
Since 1 June heating degree days 0 3  
Since 1 July heating degree days 0 0  
Cooling Degree Days 17 14  
Month to date cooling degree days 350 305  
Year to date cooling degree days 912 756  
Since 1 June cooling degree days 750 613  
Growing Degree Days 32 (Base 50)    
Moisture  
Dew Point 75 °F    
Average Humidity 81    
Maximum Humidity 91    
Minimum Humidity 70    
Precipitation  
Precipitation T in 0.18 in 1.89 in (1981)
Month to date precipitation 1.29 3.37  
Year to date precipitation 26.84 28.64  
Snow  
Snow 0.00 in - - ()
Month to date snowfall 0.0  
Since 1 July snowfall 0.0  
Snow Depth 0.00 in    
Sea Level Pressure  
Sea Level Pressure 29.92 in    
Wind  
Wind Speed 8 mph (SW)    
Max Wind Speed 15 mph    
Max Gust Speed 23 mph    
Visibility 8 miles    
Events      
T = Trace of Precipitation, MM = Missing Value Source: NWS Daily Summary

Daily Weather History Graph

Daily Weather History Graph

Search for Another Location

Airport or City:

Trip Planner

Search our weather history database for the weather conditions in past years. The results will help you decide how hot, cold, wet, or windy it might be!

Date:

Astronomy

Jul. 22, 2013 Rise Set
Actual Time 6:04 AM EDT 8:13 PM EDT
Civil Twilight 5:35 AM EDT 8:41 PM EDT
Nautical Twilight 5:00 AM EDT 9:16 PM EDT
Astronomical Twilight 4:22 AM EDT 9:54 PM EDT
Moon 8:01 PM EDT (7/22) 5:55 AM EDT (7/22)
Length of Visible Light 15h 06m
Length of Day
14h 09m
Full, 100% of the Moon is Illuminated
Jul 22
Full
Jul 22
Full
Jul 29
Last Quarter
Aug 6
New
Aug 14
First Quarter

Hourly Weather History & Observations

Time (EDT) Temp. Heat Index Dew Point Humidity Pressure Visibility Wind Dir Wind Speed Gust Speed Precip Events Conditions
12:51 AM 79.0 °F - 75.0 °F 88% 29.99 in 9.0 mi SSW 9.2 mph - N/A   Clear
1:51 AM 78.1 °F - 75.0 °F 90% 29.97 in 9.0 mi SW 9.2 mph - N/A   Clear
2:51 AM 78.1 °F - 73.9 °F 87% 29.96 in 8.0 mi SW 5.8 mph - N/A   Clear
3:51 AM 78.1 °F - 73.9 °F 87% 29.94 in 8.0 mi WSW 6.9 mph - N/A   Clear
4:51 AM 77.0 °F - 73.9 °F 90% 29.94 in 7.0 mi Calm Calm - N/A   Clear
5:51 AM 77.0 °F - 73.9 °F 90% 29.94 in 7.0 mi WSW 4.6 mph - N/A   Clear
6:51 AM 78.1 °F - 75.0 °F 90% 29.94 in 5.0 mi SW 3.5 mph - N/A   Clear
7:51 AM 79.0 °F - 75.0 °F 88% 29.96 in 8.0 mi South 5.8 mph - N/A   Clear
8:51 AM 80.1 °F 85.1 °F 75.0 °F 85% 29.96 in 10.0 mi South 5.8 mph - N/A   Clear
9:51 AM 82.0 °F 88.6 °F 75.0 °F 79% 29.96 in 10.0 mi SSW 5.8 mph - N/A   Clear
10:51 AM 84.0 °F 92.6 °F 75.9 °F 76% 29.96 in 10.0 mi SSW 5.8 mph - N/A   Partly Cloudy
11:51 AM 86.0 °F 96.0 °F 75.9 °F 72% 29.96 in 10.0 mi SSW 5.8 mph - N/A   Clear
12:51 PM 86.0 °F 96.0 °F 75.9 °F 72% 29.95 in 10.0 mi SSW 8.1 mph - N/A   Clear
1:51 PM 82.9 °F 90.8 °F 75.9 °F 79% 29.93 in 9.0 mi SW 6.9 mph - N/A   Clear
2:51 PM 82.0 °F 89.4 °F 75.9 °F 82% 29.92 in 9.0 mi SW 9.2 mph - 0.00 in   Clear
3:51 PM 84.0 °F 91.9 °F 75.0 °F 74% 29.90 in 10.0 mi SW 10.4 mph - N/A   Partly Cloudy
4:51 PM 84.9 °F 93.3 °F 75.0 °F 72% 29.88 in 9.0 mi SW 9.2 mph - N/A   Clear
5:51 PM 82.9 °F 90.2 °F 75.0 °F 77% 29.86 in 7.0 mi SW 12.7 mph 18.4 mph N/A   Clear
6:51 PM 81.0 °F 86.7 °F 75.0 °F 82% 29.86 in 6.0 mi SW 11.5 mph 18.4 mph N/A   Haze
7:51 PM 80.1 °F 85.1 °F 75.0 °F 85% 29.87 in 6.0 mi SW 13.8 mph 20.7 mph N/A   Haze
8:51 PM 79.0 °F - 75.0 °F 88% 29.87 in 8.0 mi SW 12.7 mph - N/A   Clear
9:51 PM 79.0 °F - 75.0 °F 88% 29.89 in 6.0 mi SW 11.5 mph 18.4 mph N/A   Clear
10:51 PM 79.0 °F - 75.0 °F 88% 29.89 in 7.0 mi WSW 12.7 mph 19.6 mph N/A   Clear
11:51 PM 79.0 °F - 75.0 °F 88% 29.89 in 6.0 mi WSW 12.7 mph - N/A   Clear